This is the latest recevied weather packets stored in our database for station/object AE5PL. If no packets are shown the sender has not sent any weather packets the latest 10 day(s).
| Time | Temp. | Humidity | Pressure | Rain* | Wind** | Luminosity | Snow |
|---|---|---|---|---|---|---|---|
| 1777835505 | 27.22° C | 36% | 1018.3 hPa | - | - | - | - |
| 1777835205 | 27.22° C | 34% | 1018.3 hPa | - | - | - | - |
| 1777834905 | 27.22° C | 35% | 1018.4 hPa | - | - | - | - |
| 1777834605 | 27.22° C | 36% | 1018.4 hPa | - | - | - | - |
| 1777834305 | 27.22° C | 36% | 1018.5 hPa | - | - | - | - |
| 1777834005 | 26.67° C | 37% | 1018.6 hPa | - | - | - | - |
| 1777833705 | 26.67° C | 35% | 1018.7 hPa | - | - | - | - |
| 1777833405 | 26.67° C | 37% | 1018.8 hPa | - | - | - | - |
| 1777833105 | 26.67° C | 35% | 1018.8 hPa | - | - | - | - |
| 1777832805 | 26.67° C | 34% | 1018.9 hPa | - | - | - | - |
| 1777832505 | 26.67° C | 37% | 1019 hPa | - | - | - | - |
| 1777832205 | 26.11° C | 38% | 1019.2 hPa | - | - | - | - |
| 1777831905 | 26.11° C | 39% | 1019.3 hPa | - | - | - | - |
| 1777831605 | 26.11° C | 36% | 1019.4 hPa | - | - | - | - |
| 1777831305 | 26.67° C | 38% | 1019.5 hPa | - | - | - | - |
| 1777831005 | 26.67° C | 38% | 1019.5 hPa | - | - | - | - |
| 1777830705 | 26.11° C | 40% | 1019.6 hPa | - | - | - | - |
| 1777830405 | 26.11° C | 39% | 1019.6 hPa | - | - | - | - |
| 1777830105 | 26.11° C | 39% | 1019.9 hPa | - | - | - | - |
| 1777829805 | 26.11° C | 40% | 1019.9 hPa | - | - | - | - |
| 1777829505 | 25.56° C | 43% | 1019.9 hPa | - | - | - | - |
| 1777829205 | 25.56° C | 39% | 1020 hPa | - | - | - | - |
| 1777828905 | 25.56° C | 39% | 1020.1 hPa | - | - | - | - |
| 1777828605 | 25.56° C | 41% | 1020.1 hPa | - | - | - | - |
| 1777828305 | 25.56° C | 39% | 1020.3 hPa | - | - | - | - |
* Rain since midnight (hover to see other rain measurements)
** Current wind speed in m/s (hover to see current wind gust speed)